contact:dominique.lefevre@mio.osupytheas.fr, maurice.libes@osupytheas.fr, didier.mallarino@osupytheas.fr
Project:EMSO http://www.emso-fr.org/EMSO-France
Depth: 2436.0 m
Title:EMSO Ligure Ouest : Data MII capteur AQUADOPP
Date,Latitude,Longitude,X_East,Y_North,Z_Up,Amplitude_X,Amplitude_Y,Amplitude_Z,Batterie,SoundSpeed,Heading,Pitch,Roll,Pressure,TIS,Speed,Direction
, degrees North, degrees East, m.s-1, m.s-1,m.s-1, 1, 1, 1, Volt, m.s-1, degree, degree, degree, dbar, degree_C, m.s-1, degree
2019-12-22T00:04:03,42.805,6.029,-0.054,0.033,-0.03,98.0,103.0,99.0,13.3,1505.2,323.6,-0.7,1.8,2470.155,13.3,0.063,301.4
2019-12-22T00:07:03,42.805,6.029,-0.008,0.014,-0.045,102.0,102.0,98.0,13.3,1505.3,322.9,-0.7,1.8,2470.125,13.31,0.016,330.3
2019-12-22T00:10:03,42.805,6.029,-0.034,0.022,-0.083,99.0,103.0,99.0,13.3,1505.3,324.9,-0.7,1.8,2470.132,13.32,0.04,302.9
2019-12-22T00:13:03,42.805,6.029,0.006,0.036,-0.023,98.0,105.0,100.0,13.4,1505.3,323.6,-0.7,1.8,2470.156,13.32,0.036,9.5
2019-12-22T00:16:03,42.805,6.029,-0.021,0.018,-0.048,99.0,102.0,98.0,13.4,1505.3,324.5,-0.7,1.9,2470.161,13.32,0.027,310.6
2019-12-22T00:19:03,42.805,6.029,-0.015,0.013,-0.032,100.0,101.0,99.0,13.4,1505.3,325.1,-0.7,1.8,2470.116,13.32,0.019,310.9
2019-12-22T00:22:03,42.805,6.029,-0.01,0.024,-0.036,99.0,103.0,98.0,13.4,1505.3,327.8,-0.7,1.8,2470.123,13.32,0.026,337.4
2019-12-22T00:25:03,42.805,6.029,-0.025,0.022,-0.069,101.0,102.0,98.0,13.4,1505.3,325.8,-0.7,1.8,2470.137,13.32,0.033,311.3
2019-12-22T00:28:03,42.805,6.029,-0.03,0.023,0.009,99.0,103.0,98.0,13.4,1505.3,325.8,-0.7,1.8,2470.149,13.32,0.037,307.5
2019-12-22T00:31:03,42.805,6.029,-0.016,0.038,-0.047,100.0,102.0,98.0,13.4,1505.3,324.8,-0.7,1.8,2470.132,13.32,0.041,337.2
2019-12-22T00:34:03,42.805,6.029,-0.03,0.047,-0.05,100.0,104.0,99.0,13.4,1505.3,327.6,-0.7,1.8,2470.136,13.32,0.055,327.4
2019-12-22T00:37:03,42.805,6.029,0.0,0.033,-0.056,100.0,104.0,99.0,13.3,1505.3,326.2,-0.7,1.8,2470.117,13.32,0.033,0.0
2019-12-22T00:40:03,42.805,6.029,-0.015,0.013,-0.025,100.0,102.0,98.0,13.4,1505.3,328.6,-0.7,1.9,2470.094,13.32,0.019,310.9
2019-12-22T00:43:03,42.805,6.029,-0.03,0.052,-0.045,99.0,103.0,97.0,13.4,1505.3,327.3,-0.7,1.8,2470.14,13.32,0.06,330.0
2019-12-22T00:46:03,42.805,6.029,-0.023,0.048,-0.017,100.0,103.0,98.0,13.4,1505.3,328.0,-0.7,1.9,2470.197,13.32,0.053,334.4
2019-12-22T00:49:03,42.805,6.029,-0.035,0.034,-0.05,100.0,102.0,98.0,13.4,1505.3,323.1,-0.7,1.9,2470.128,13.33,0.048,314.2
2019-12-22T00:52:03,42.805,6.029,-0.033,0.046,-0.03,100.0,103.0,98.0,13.4,1505.3,326.3,-0.7,1.9,2470.113,13.33,0.056,324.3
2019-12-22T00:55:03,42.805,6.029,-0.03,0.034,-0.023,100.0,103.0,98.0,13.4,1505.3,327.8,-0.7,1.8,2470.117,13.32,0.045,318.6
2019-12-22T00:58:03,42.805,6.029,-0.058,0.037,-0.055,100.0,102.0,98.0,13.3,1505.3,323.6,-0.7,1.8,2470.128,13.32,0.068,302.5
2019-12-22T01:04:03,42.805,6.029,-0.083,0.057,-0.047,102.0,104.0,99.0,13.4,1505.3,324.9,-0.8,1.8,2470.207,13.31,0.1,304.5
2019-12-22T01:07:04,42.805,6.029,-0.032,0.036,-0.053,99.0,102.0,99.0,13.4,1505.3,327.9,-0.7,1.9,2470.148,13.31,0.048,318.4
2019-12-22T01:10:03,42.805,6.029,-0.047,0.022,-0.091,99.0,102.0,98.0,13.4,1505.3,323.6,-0.7,1.9,2470.135,13.32,0.051,295.1
2019-12-22T01:13:03,42.805,6.029,-0.017,0.03,-0.042,100.0,104.0,98.0,13.4,1505.3,326.7,-0.7,1.8,2470.12,13.32,0.034,330.5
2019-12-22T01:16:03,42.805,6.029,-0.009,0.037,-0.024,100.0,103.0,98.0,13.4,1505.3,327.2,-0.7,1.8,2470.151,13.32,0.038,346.3
2019-12-22T01:19:03,42.805,6.029,-0.002,0.038,-0.028,100.0,103.0,99.0,13.4,1505.3,325.0,-0.7,1.8,2470.175,13.32,0.038,357.0
2019-12-22T01:22:03,42.805,6.029,-0.019,0.027,-0.052,99.0,101.0,98.0,13.4,1505.3,325.1,-0.7,1.8,2470.173,13.32,0.033,324.9
2019-12-22T01:25:03,42.805,6.029,-0.013,0.033,-0.088,99.0,102.0,98.0,13.4,1505.3,326.5,-0.7,1.8,2470.128,13.32,0.035,338.5
2019-12-22T01:28:03,42.805,6.029,0.002,0.027,-0.012,99.0,103.0,98.0,13.4,1505.3,323.2,-0.7,1.8,2470.191,13.32,0.027,4.2
2019-12-22T01:31:03,42.805,6.029,-0.009,0.033,-0.062,99.0,103.0,98.0,13.4,1505.3,328.1,-0.7,1.8,2470.152,13.32,0.034,344.7
2019-12-22T01:34:03,42.805,6.029,-0.058,0.032,-0.07,100.0,103.0,98.0,13.4,1505.3,326.4,-0.7,1.8,2470.143,13.32,0.066,298.9
2019-12-22T01:37:03,42.805,6.029,-0.003,0.034,-0.039,99.0,103.0,98.0,13.4,1505.3,325.8,-0.7,1.8,2470.225,13.32,0.034,355.0
2019-12-22T01:40:03,42.805,6.029,-0.034,0.042,-0.043,99.0,102.0,98.0,13.3,1505.3,323.9,-0.7,1.8,2470.182,13.32,0.054,321.0
2019-12-22T01:43:03,42.805,6.029,-0.009,0.032,-0.049,100.0,102.0,97.0,13.4,1505.3,327.1,-0.7,1.8,2470.185,13.32,0.033,344.3
2019-12-22T01:46:03,42.805,6.029,-0.018,0.036,-0.047,100.0,102.0,97.0,13.4,1505.3,326.0,-0.7,1.8,2470.175,13.32,0.04,333.4
2019-12-22T01:49:03,42.805,6.029,-0.056,0.032,-0.077,99.0,102.0,98.0,13.4,1505.3,323.3,-0.7,1.9,2470.163,13.32,0.064,299.7
2019-12-22T01:52:03,42.805,6.029,-0.04,0.038,-0.028,99.0,102.0,98.0,13.4,1505.3,326.3,-0.7,1.9,2470.18,13.33,0.055,313.5
2019-12-22T01:55:03,42.805,6.029,-0.034,0.03,-0.049,100.0,103.0,98.0,13.4,1505.3,326.0,-0.7,1.8,2470.209,13.32,0.045,311.4
2019-12-22T01:58:03,42.805,6.029,-0.021,0.03,-0.037,99.0,103.0,98.0,13.3,1505.3,327.6,-0.7,1.8,2470.22,13.33,0.036,325.0
2019-12-22T02:04:03,42.805,6.029,0.011,0.017,-0.045,99.0,102.0,97.0,13.3,1505.2,328.4,-0.7,1.9,2470.271,13.3,0.02,32.9
2019-12-22T02:07:03,42.805,6.029,-0.031,0.049,-0.043,100.0,103.0,97.0,13.4,1505.3,324.2,-0.7,1.8,2470.209,13.31,0.057,327.7
2019-12-22T02:10:03,42.805,6.029,-0.015,0.037,-0.052,99.0,102.0,98.0,13.3,1505.3,323.8,-0.7,1.9,2470.235,13.32,0.039,337.9
2019-12-22T02:13:03,42.805,6.029,-0.009,0.04,-0.046,100.0,103.0,98.0,13.3,1505.3,326.5,-0.7,1.8,2470.23,13.32,0.041,347.3
2019-12-22T02:16:03,42.805,6.029,-0.008,0.032,-0.009,98.0,102.0,98.0,13.4,1505.3,325.0,-0.7,1.8,2470.238,13.32,0.032,346.0
2019-12-22T02:19:03,42.805,6.029,-0.043,0.049,-0.009,99.0,102.0,98.0,13.3,1505.3,324.7,-0.7,1.8,2470.204,13.32,0.065,318.7
2019-12-22T02:22:03,42.805,6.029,-0.045,0.038,-0.032,99.0,102.0,98.0,13.4,1505.3,325.5,-0.7,1.9,2470.232,13.32,0.058,310.2
2019-12-22T02:25:03,42.805,6.029,-0.027,0.054,-0.027,99.0,102.0,97.0,13.3,1505.3,325.9,-0.7,1.9,2470.23,13.32,0.06,333.4
2019-12-22T02:28:03,42.805,6.029,0.0,0.032,-0.043,100.0,105.0,98.0,13.4,1505.3,328.5,-0.7,1.8,2470.239,13.32,0.032,0.0
2019-12-22T02:31:03,42.805,6.029,0.0,0.038,-0.058,99.0,103.0,99.0,13.3,1505.3,326.6,-0.7,1.8,2470.22,13.33,0.038,0.0
2019-12-22T02:34:03,42.805,6.029,-0.015,0.036,-0.036,100.0,104.0,98.0,13.4,1505.3,324.5,-0.7,1.8,2470.213,13.33,0.039,337.4
2019-12-22T02:37:03,42.805,6.029,-0.048,0.035,-0.065,100.0,102.0,98.0,13.3,1505.3,323.0,-0.7,1.8,2470.224,13.33,0.059,306.1
2019-12-22T02:40:03,42.805,6.029,-0.026,0.036,-0.017,100.0,104.0,98.0,13.4,1505.3,324.9,-0.7,1.8,2470.197,13.33,0.044,324.2
2019-12-22T02:43:03,42.805,6.029,-0.015,0.04,-0.046,99.0,102.0,98.0,13.4,1505.3,327.6,-0.7,1.8,2470.23,13.33,0.042,339.4
2019-12-22T02:46:03,42.805,6.029,-0.029,0.053,0.003,99.0,103.0,98.0,13.4,1505.3,327.6,-0.7,1.8,2470.221,13.33,0.06,331.3
2019-12-22T02:49:03,42.805,6.029,-0.04,0.023,-0.057,99.0,103.0,99.0,13.4,1505.3,325.3,-0.7,1.8,2470.28,13.33,0.046,299.9
2019-12-22T02:52:03,42.805,6.029,-0.018,0.034,-0.054,99.0,105.0,98.0,13.4,1505.3,328.1,-0.7,1.8,2470.24,13.33,0.038,332.1
2019-12-22T02:55:03,42.805,6.029,-0.044,0.056,-0.028,100.0,103.0,98.0,13.4,1505.3,323.8,-0.7,1.8,2470.273,13.33,0.071,321.8
2019-12-22T02:58:03,42.805,6.029,-0.003,0.044,-0.028,100.0,105.0,97.0,13.4,1505.3,326.6,-0.7,1.9,2470.211,13.33,0.044,356.1
2019-12-22T03:04:03,42.805,6.029,-0.009,0.06,-0.025,99.0,103.0,97.0,13.3,1505.3,324.7,-0.7,1.8,2470.245,13.31,0.06,351.5
2019-12-22T03:07:03,42.805,6.029,-0.015,0.052,-0.014,99.0,104.0,97.0,13.4,1505.3,324.3,-0.7,1.9,2470.288,13.31,0.054,343.9
2019-12-22T03:10:03,42.805,6.029,-0.01,0.057,-0.024,100.0,103.0,98.0,13.4,1505.3,325.6,-0.7,1.8,2470.28,13.32,0.057,350.1
2019-12-22T03:13:03,42.805,6.029,0.006,0.033,-0.047,99.0,103.0,98.0,13.4,1505.3,325.4,-0.7,1.8,2470.305,13.32,0.033,10.3
2019-12-22T03:16:03,42.805,6.029,-0.031,0.028,-0.056,99.0,104.0,97.0,13.4,1505.3,323.6,-0.7,1.8,2470.278,13.32,0.041,312.1
2019-12-22T03:19:03,42.805,6.029,-0.015,0.024,-0.05,99.0,104.0,98.0,13.3,1505.3,324.0,-0.7,1.8,2470.284,13.32,0.028,328.0
2019-12-22T03:22:03,42.805,6.029,-0.026,0.025,-0.071,100.0,103.0,98.0,13.4,1505.3,324.5,-0.7,1.8,2470.254,13.32,0.036,313.9
2019-12-22T03:25:03,42.805,6.029,-0.003,0.025,-0.036,100.0,103.0,98.0,13.4,1505.3,324.1,-0.7,1.8,2470.253,13.32,0.025,353.2
2019-12-22T03:28:03,42.805,6.029,0.0,0.03,-0.073,99.0,102.0,98.0,13.4,1505.3,324.8,-0.7,1.8,2470.241,13.32,0.03,0.0
2019-12-22T03:31:03,42.805,6.029,-0.021,0.038,-0.046,100.0,103.0,98.0,13.3,1505.3,324.8,-0.7,1.8,2470.251,13.32,0.043,331.1
2019-12-22T03:34:03,42.805,6.029,-0.02,0.042,-0.032,100.0,104.0,99.0,13.4,1505.3,325.8,-0.7,1.8,2470.251,13.33,0.046,334.5
2019-12-22T03:37:03,42.805,6.029,0.008,0.022,-0.061,100.0,103.0,99.0,13.4,1505.3,328.3,-0.7,1.8,2470.243,13.33,0.023,20.0
2019-12-22T03:40:03,42.805,6.029,-0.02,0.041,-0.041,99.0,103.0,98.0,13.4,1505.3,328.2,-0.7,1.8,2470.284,13.33,0.045,334.0
2019-12-22T03:43:03,42.805,6.029,-0.048,0.05,-0.024,99.0,104.0,98.0,13.4,1505.3,327.6,-0.7,1.8,2470.27,13.33,0.069,316.2
2019-12-22T03:46:03,42.805,6.029,-0.062,0.035,-0.045,99.0,102.0,98.0,13.4,1505.3,324.0,-0.7,1.8,2470.246,13.33,0.071,299.4
2019-12-22T03:49:03,42.805,6.029,-0.008,0.027,-0.043,100.0,105.0,98.0,13.4,1505.3,324.9,-0.7,1.8,2470.317,13.33,0.028,343.5
2019-12-22T03:52:03,42.805,6.029,-0.01,0.043,-0.051,100.0,103.0,98.0,13.4,1505.3,323.7,-0.7,1.8,2470.261,13.33,0.044,346.9
2019-12-22T03:55:03,42.805,6.029,-0.015,0.025,-0.021,100.0,103.0,105.0,13.4,1505.3,325.9,-0.7,1.9,2470.248,13.33,0.029,329.0
2019-12-22T03:58:03,42.805,6.029,-0.078,0.055,-0.069,99.0,103.0,98.0,13.3,1505.3,326.2,-0.7,1.8,2470.294,13.33,0.095,305.2
2019-12-22T04:04:03,42.805,6.029,0.001,0.028,-0.045,98.0,104.0,97.0,13.3,1505.3,325.0,-0.7,1.8,2470.315,13.31,0.028,2.0
2019-12-22T04:07:03,42.805,6.029,-0.056,0.035,-0.073,99.0,104.0,98.0,13.4,1505.3,325.7,-0.7,1.8,2470.311,13.31,0.066,302.0
2019-12-22T04:10:03,42.805,6.029,-0.033,0.049,-0.053,99.0,104.0,98.0,13.4,1505.3,328.0,-0.7,1.8,2470.313,13.32,0.059,326.0
2019-12-22T04:13:03,42.805,6.029,-0.008,0.025,-0.043,100.0,104.0,97.0,13.4,1505.3,325.8,-0.7,1.8,2470.274,13.32,0.026,342.3
2019-12-22T04:16:03,42.805,6.029,0.011,0.026,-0.053,105.0,104.0,98.0,13.4,1505.3,327.6,-0.7,1.8,2470.266,13.32,0.028,22.9
2019-12-22T04:19:03,42.805,6.029,-0.001,0.04,-0.049,100.0,102.0,97.0,13.3,1505.3,326.2,-0.7,1.8,2470.264,13.32,0.04,358.6
2019-12-22T04:22:03,42.805,6.029,-0.027,0.037,-0.078,99.0,103.0,98.0,13.4,1505.3,325.6,-0.7,1.8,2470.278,13.32,0.045,323.9
2019-12-22T04:25:03,42.805,6.029,-0.022,0.031,-0.062,99.0,102.0,98.0,13.4,1505.3,327.6,-0.7,1.8,2470.285,13.32,0.038,324.6
2019-12-22T04:28:03,42.805,6.029,-0.014,0.026,-0.059,100.0,104.0,96.0,13.4,1505.3,324.9,-0.7,1.8,2470.273,13.33,0.029,331.7
2019-12-22T04:31:03,42.805,6.029,-0.02,0.038,-0.042,99.0,105.0,98.0,13.4,1505.3,326.8,-0.7,1.8,2470.294,13.33,0.042,332.2
2019-12-22T04:34:03,42.805,6.029,-0.014,0.037,-0.054,100.0,104.0,96.0,13.4,1505.3,326.1,-0.7,1.8,2470.274,13.33,0.039,339.3
2019-12-22T04:37:03,42.805,6.029,-0.001,0.023,-0.039,97.0,105.0,97.0,13.4,1505.3,325.2,-0.7,1.8,2470.326,13.33,0.023,357.5
2019-12-22T04:40:03,42.805,6.029,0.001,0.05,-0.015,99.0,103.0,99.0,13.4,1505.3,327.4,-0.7,1.8,2470.261,13.33,0.05,1.1
2019-12-22T04:43:03,42.805,6.029,0.0,0.046,-0.043,99.0,104.0,99.0,13.3,1505.3,325.8,-0.7,1.8,2470.254,13.33,0.046,0.0
2019-12-22T04:46:03,42.805,6.029,-0.045,0.052,-0.057,100.0,104.0,97.0,13.4,1505.3,325.2,-0.7,1.8,2470.254,13.33,0.068,319.1
2019-12-22T04:49:03,42.805,6.029,0.009,0.038,-0.007,99.0,105.0,100.0,13.4,1505.3,325.2,-0.7,1.8,2470.289,13.33,0.039,13.3
2019-12-22T04:52:03,42.805,6.029,0.004,0.043,-0.042,100.0,104.0,97.0,13.4,1505.3,324.2,-0.7,1.8,2470.252,13.33,0.043,5.3
2019-12-22T04:55:03,42.805,6.029,-0.015,0.026,-0.047,100.0,104.0,99.0,13.4,1505.3,325.9,-0.7,1.8,2470.239,13.33,0.03,330.0
2019-12-22T04:58:03,42.805,6.029,-0.004,0.028,-0.032,101.0,104.0,98.0,13.4,1505.3,326.0,-0.7,1.8,2470.25,13.33,0.028,351.9
2019-12-22T05:04:03,42.805,6.029,0.033,0.029,-0.013,99.0,103.0,98.0,13.4,1505.3,324.5,-0.7,1.8,2470.289,13.31,0.043,48.7
2019-12-22T05:07:03,42.805,6.029,-0.032,0.035,-0.046,99.0,103.0,99.0,13.3,1505.3,325.3,-0.7,1.8,2470.267,13.31,0.047,317.6
2019-12-22T05:10:03,42.805,6.029,-0.028,0.039,-0.033,100.0,103.0,97.0,13.4,1505.3,325.8,-0.7,1.8,2470.251,13.32,0.048,324.3
2019-12-22T05:16:03,42.805,6.029,-0.034,0.025,-0.062,99.0,104.0,98.0,13.4,1505.2,326.0,-0.7,1.8,2470.28,13.3,0.042,306.3
2019-12-22T05:19:03,42.805,6.029,-0.004,0.024,-0.038,99.0,105.0,98.0,13.4,1505.3,326.5,-0.7,1.9,2470.311,13.31,0.024,350.5
2019-12-22T05:22:03,42.805,6.029,-0.002,0.03,-0.035,99.0,104.0,98.0,13.4,1505.3,324.7,-0.7,1.8,2470.328,13.32,0.03,356.2
2019-12-22T05:25:03,42.805,6.029,-0.032,0.035,-0.04,97.0,106.0,99.0,13.4,1505.3,325.2,-0.7,1.8,2470.327,13.32,0.047,317.6
2019-12-22T05:28:03,42.805,6.029,-0.036,0.033,-0.052,100.0,105.0,98.0,13.3,1505.3,324.6,-0.7,1.8,2470.297,13.32,0.048,312.5
2019-12-22T05:31:03,42.805,6.029,0.0,0.045,-0.043,99.0,106.0,97.0,13.4,1505.3,326.0,-0.7,1.8,2470.299,13.32,0.045,0.0
2019-12-22T05:34:03,42.805,6.029,-0.043,0.043,-0.055,99.0,103.0,98.0,13.4,1505.3,324.8,-0.7,1.8,2470.241,13.32,0.06,315.0
2019-12-22T05:37:03,42.805,6.029,-0.017,0.038,-0.022,99.0,103.0,98.0,13.4,1505.3,326.2,-0.7,1.8,2470.259,13.33,0.041,335.9
2019-12-22T05:40:03,42.805,6.029,-0.028,0.029,-0.037,100.0,105.0,97.0,13.4,1505.3,325.0,-0.7,1.8,2470.261,13.33,0.04,316.0
2019-12-22T05:43:03,42.805,6.029,-0.014,0.04,-0.035,100.0,103.0,99.0,13.4,1505.3,326.5,-0.7,1.9,2470.262,13.33,0.042,340.7
2019-12-22T05:46:03,42.805,6.029,-0.058,0.047,-0.059,102.0,105.0,96.0,13.3,1505.3,327.4,-0.7,1.8,2470.249,13.33,0.074,309.0
2019-12-22T05:49:03,42.805,6.029,-0.018,0.043,-0.033,99.0,103.0,98.0,13.4,1505.3,327.1,-0.7,1.8,2470.242,13.33,0.046,337.3
2019-12-22T05:52:03,42.805,6.029,0.028,0.028,-0.021,99.0,103.0,99.0,13.4,1505.3,327.6,-0.7,1.8,2470.233,13.33,0.039,45.0
2019-12-22T05:55:03,42.805,6.029,-0.003,0.051,-0.011,99.0,105.0,97.0,13.4,1505.3,324.8,-0.7,1.8,2470.264,13.33,0.051,356.6
2019-12-22T05:58:03,42.805,6.029,-0.013,0.033,-0.068,100.0,105.0,97.0,13.4,1505.3,324.4,-0.7,1.8,2470.282,13.33,0.035,338.5
2019-12-22T06:04:04,42.805,6.029,-0.023,0.027,-0.053,100.0,104.0,98.0,13.4,1505.3,322.9,-0.8,1.8,2470.288,13.31,0.035,319.6
2019-12-22T06:07:03,42.805,6.029,-0.044,0.033,-0.061,101.0,104.0,96.0,13.4,1505.3,324.0,-0.7,1.8,2470.269,13.31,0.055,306.9
2019-12-22T06:10:03,42.805,6.029,-0.021,0.037,-0.066,100.0,103.0,98.0,13.4,1505.3,326.4,-0.8,1.8,2470.24,13.32,0.042,330.4
2019-12-22T06:13:03,42.805,6.029,-0.009,0.049,-0.037,100.0,104.0,97.0,13.4,1505.3,326.4,-0.7,1.9,2470.268,13.32,0.049,349.6
2019-12-22T06:16:03,42.805,6.029,0.013,0.036,-0.05,100.0,106.0,97.0,13.4,1505.3,326.9,-0.7,1.8,2470.249,13.32,0.038,19.9
2019-12-22T06:19:03,42.805,6.029,0.01,0.034,-0.046,99.0,104.0,97.0,13.4,1505.3,325.3,-0.7,1.9,2470.273,13.32,0.035,16.4
2019-12-22T06:22:03,42.805,6.029,-0.036,0.05,-0.035,100.0,104.0,98.0,13.3,1505.3,325.5,-0.7,1.8,2470.221,13.33,0.061,324.2
2019-12-22T06:25:03,42.805,6.029,0.003,0.048,-0.036,101.0,103.0,100.0,13.3,1505.3,326.7,-0.7,1.8,2470.237,13.33,0.048,3.6
2019-12-22T06:28:03,42.805,6.029,-0.041,0.029,-0.053,101.0,102.0,98.0,13.4,1505.3,324.1,-0.7,1.8,2470.262,13.33,0.05,305.3
2019-12-22T06:31:03,42.805,6.029,-0.021,0.043,-0.042,100.0,105.0,98.0,13.4,1505.3,325.8,-0.7,1.8,2470.235,13.33,0.047,334.0
2019-12-22T06:34:03,42.805,6.029,0.003,0.038,-0.05,99.0,103.0,96.0,13.4,1505.3,323.5,-0.7,1.8,2470.328,13.33,0.038,4.5
2019-12-22T06:37:03,42.805,6.029,-0.006,0.036,-0.049,99.0,103.0,99.0,13.4,1505.3,326.6,-0.7,1.8,2470.295,13.33,0.036,350.5
2019-12-22T06:40:03,42.805,6.029,-0.011,0.026,-0.015,100.0,103.0,99.0,13.4,1505.3,328.6,-0.7,1.9,2470.251,13.33,0.028,337.1
2019-12-22T06:43:03,42.805,6.029,-0.061,0.036,-0.037,99.0,104.0,97.0,13.4,1505.3,323.1,-0.7,1.9,2470.248,13.33,0.07,300.5
2019-12-22T06:46:03,42.805,6.029,-0.024,0.072,-0.02,99.0,103.0,97.0,13.4,1505.3,326.9,-0.7,1.9,2470.259,13.33,0.075,341.6
2019-12-22T06:49:03,42.805,6.029,-0.018,0.063,-0.057,98.0,105.0,98.0,13.4,1505.3,324.1,-0.7,1.8,2470.232,13.33,0.065,344.1
2019-12-22T06:52:03,42.805,6.029,-0.012,0.041,-0.079,99.0,105.0,98.0,13.3,1505.3,327.4,-0.7,1.8,2470.264,13.33,0.042,343.7
2019-12-22T06:55:03,42.805,6.029,-0.046,0.037,-0.093,99.0,103.0,98.0,13.4,1505.3,327.9,-0.7,1.8,2470.257,13.33,0.059,308.8
2019-12-22T06:58:03,42.805,6.029,-0.009,0.034,-0.027,99.0,103.0,99.0,13.4,1505.3,326.3,-0.7,1.8,2470.267,13.33,0.035,345.2
2019-12-22T07:04:03,42.805,6.029,0.001,0.042,-0.031,99.0,105.0,98.0,13.4,1505.3,326.6,-0.8,1.9,2470.314,13.31,0.042,1.4
2019-12-22T07:07:03,42.805,6.029,-0.013,0.049,-0.044,99.0,104.0,98.0,13.4,1505.3,328.4,-0.7,1.8,2470.326,13.31,0.05,345.1
2019-12-22T07:10:03,42.805,6.029,-0.027,0.039,-0.049,99.0,104.0,98.0,13.4,1505.3,324.7,-0.7,1.8,2470.287,13.32,0.047,325.3
2019-12-22T07:13:03,42.805,6.029,0.007,0.04,-0.023,100.0,104.0,98.0,13.4,1505.3,326.2,-0.7,1.8,2470.283,13.32,0.04,9.9
2019-12-22T07:16:03,42.805,6.029,-0.006,0.038,-0.018,99.0,104.0,98.0,13.3,1505.3,323.5,-0.7,1.8,2470.233,13.32,0.038,351.0
2019-12-22T07:19:03,42.805,6.029,-0.01,0.05,-0.078,101.0,103.0,98.0,13.4,1505.3,327.6,-0.7,1.8,2470.241,13.33,0.05,348.7
2019-12-22T07:22:03,42.805,6.029,-0.018,0.046,-0.025,98.0,102.0,98.0,13.4,1505.3,323.8,-0.7,1.9,2470.264,13.32,0.049,338.6
2019-12-22T07:25:03,42.805,6.029,-0.021,0.037,-0.063,99.0,105.0,97.0,13.4,1505.3,323.7,-0.7,1.9,2470.247,13.33,0.042,330.4
2019-12-22T07:28:03,42.805,6.029,-0.027,0.046,-0.062,99.0,103.0,98.0,13.4,1505.3,323.4,-0.7,1.9,2470.268,13.33,0.053,329.6
2019-12-22T07:31:03,42.805,6.029,-0.01,0.038,-0.071,100.0,105.0,97.0,13.3,1505.3,326.9,-0.7,1.8,2470.214,13.33,0.039,345.3
2019-12-22T07:34:03,42.805,6.029,0.028,0.038,-0.019,99.0,105.0,98.0,13.4,1505.3,326.5,-0.7,1.8,2470.258,13.33,0.047,36.4
2019-12-22T07:37:03,42.805,6.029,0.012,0.035,-0.052,99.0,105.0,97.0,13.4,1505.3,326.6,-0.7,1.8,2470.275,13.33,0.037,18.9
2019-12-22T07:40:03,42.805,6.029,0.02,0.039,-0.004,99.0,105.0,97.0,13.3,1505.3,327.4,-0.7,1.8,2470.291,13.33,0.043,27.1
2019-12-22T07:43:03,42.805,6.029,0.018,0.032,0.002,97.0,105.0,98.0,13.4,1505.3,325.6,-0.7,1.8,2470.277,13.33,0.036,29.4
2019-12-22T07:46:03,42.805,6.029,0.004,0.048,-0.062,100.0,103.0,97.0,13.3,1505.3,325.1,-0.7,1.8,2470.236,13.33,0.048,4.8
2019-12-22T07:49:03,42.805,6.029,-0.027,0.059,-0.043,101.0,104.0,99.0,13.4,1505.3,325.9,-0.7,1.8,2470.199,13.33,0.064,335.4
2019-12-22T07:52:03,42.805,6.029,-0.007,0.051,-0.063,99.0,104.0,98.0,13.4,1505.3,326.0,-0.7,1.8,2470.256,13.33,0.051,352.2
2019-12-22T07:55:03,42.805,6.029,-0.011,0.039,-0.038,98.0,104.0,98.0,13.3,1505.3,328.3,-0.7,1.8,2470.215,13.33,0.04,344.3
2019-12-22T07:58:03,42.805,6.029,-0.008,0.058,-0.019,100.0,104.0,97.0,13.3,1505.3,328.4,-0.7,1.9,2470.239,13.33,0.058,352.2
2019-12-22T08:04:03,42.805,6.029,-0.059,0.04,-0.038,98.0,103.0,98.0,13.3,1505.3,323.4,-0.8,1.9,2470.264,13.31,0.071,304.1
2019-12-22T08:07:03,42.805,6.029,-0.021,0.039,-0.069,99.0,105.0,97.0,13.4,1505.3,327.2,-0.7,1.8,2470.262,13.31,0.044,331.7
2019-12-22T08:10:03,42.805,6.029,-0.03,0.039,-0.063,101.0,104.0,97.0,13.3,1505.3,324.5,-0.7,1.8,2470.264,13.32,0.049,322.4
2019-12-22T08:13:03,42.805,6.029,-0.031,0.064,-0.022,99.0,104.0,98.0,13.4,1505.3,328.3,-0.7,1.8,2470.249,13.32,0.071,334.2
2019-12-22T08:16:03,42.805,6.029,-0.026,0.041,-0.031,101.0,105.0,97.0,13.3,1505.3,326.5,-0.7,1.8,2470.253,13.32,0.048,327.6
2019-12-22T08:19:03,42.805,6.029,-0.012,0.043,-0.028,99.0,104.0,98.0,13.3,1505.3,327.0,-0.7,1.9,2470.231,13.32,0.044,344.4
2019-12-22T08:22:03,42.805,6.029,-0.04,0.052,-0.045,99.0,105.0,98.0,13.4,1505.3,324.8,-0.7,1.8,2470.246,13.33,0.065,322.4
2019-12-22T08:25:03,42.805,6.029,-0.031,0.08,-0.023,99.0,105.0,99.0,13.4,1505.3,327.7,-0.7,1.9,2470.223,13.33,0.085,338.8
2019-12-22T08:28:03,42.805,6.029,-0.029,0.022,-0.065,100.0,104.0,98.0,13.4,1505.3,324.9,-0.8,1.9,2470.242,13.33,0.036,307.2
2019-12-22T08:31:03,42.805,6.029,-0.015,0.023,-0.043,98.0,105.0,98.0,13.3,1505.3,325.3,-0.7,1.8,2470.214,13.33,0.027,326.9
2019-12-22T08:34:03,42.805,6.029,-0.02,0.052,-0.012,100.0,106.0,97.0,13.3,1505.3,327.4,-0.7,1.8,2470.207,13.33,0.055,339.0
2019-12-22T08:37:03,42.805,6.029,0.004,0.028,-0.038,101.0,102.0,98.0,13.4,1505.3,325.3,-0.7,1.8,2470.206,13.33,0.028,8.1
2019-12-22T08:40:03,42.805,6.029,0.01,0.046,-0.008,98.0,104.0,98.0,13.4,1505.3,327.5,-0.7,1.8,2470.23,13.33,0.047,12.3
2019-12-22T08:43:03,42.805,6.029,-0.018,0.056,-0.049,97.0,105.0,97.0,13.4,1505.3,324.5,-0.7,1.9,2470.273,13.33,0.058,342.2
2019-12-22T08:46:03,42.805,6.029,-0.031,0.031,-0.036,101.0,104.0,100.0,13.3,1505.3,324.7,-0.7,1.8,2470.216,13.33,0.043,315.0
2019-12-22T08:49:03,42.805,6.029,0.0,0.035,-0.034,98.0,104.0,99.0,13.3,1505.3,323.8,-0.7,1.9,2470.258,13.33,0.035,0.0
2019-12-22T08:52:03,42.805,6.029,-0.024,0.029,-0.034,99.0,104.0,99.0,13.4,1505.3,324.1,-0.7,1.8,2470.239,13.33,0.037,320.4
2019-12-22T08:55:03,42.805,6.029,-0.003,0.036,-0.024,98.0,105.0,97.0,13.4,1505.3,324.8,-0.7,1.8,2470.236,13.33,0.036,355.2
2019-12-22T08:58:03,42.805,6.029,-0.006,0.041,-0.024,99.0,104.0,97.0,13.4,1505.3,325.2,-0.7,1.9,2470.206,13.33,0.041,351.7
2019-12-22T09:04:03,42.805,6.029,-0.009,0.039,-0.052,99.0,103.0,98.0,13.4,1505.3,325.6,-0.8,1.8,2470.24,13.31,0.04,347.0
2019-12-22T09:07:03,42.805,6.029,-0.016,0.033,-0.045,100.0,103.0,97.0,13.4,1505.3,324.1,-0.8,1.8,2470.254,13.31,0.036,334.1
2019-12-22T09:10:03,42.805,6.029,-0.027,0.057,-0.034,99.0,105.0,97.0,13.4,1505.3,326.7,-0.7,1.9,2470.265,13.32,0.063,334.7
2019-12-22T09:13:03,42.805,6.029,-0.041,0.049,-0.078,98.0,106.0,98.0,13.4,1505.3,325.1,-0.7,1.9,2470.223,13.32,0.063,320.1
2019-12-22T09:16:03,42.805,6.029,-0.008,0.046,-0.048,98.0,103.0,98.0,13.3,1505.3,327.1,-0.7,1.8,2470.167,13.32,0.046,350.1
2019-12-22T09:19:03,42.805,6.029,0.004,0.021,-0.066,99.0,104.0,97.0,13.3,1505.3,323.1,-0.7,1.8,2470.237,13.33,0.021,10.8
2019-12-22T09:22:03,42.805,6.029,-0.034,0.027,-0.051,99.0,105.0,97.0,13.4,1505.3,323.8,-0.7,1.8,2470.236,13.33,0.043,308.5
2019-12-22T09:25:03,42.805,6.029,0.003,0.042,-0.015,99.0,104.0,98.0,13.4,1505.3,325.1,-0.7,1.8,2470.213,13.33,0.042,4.1
2019-12-22T09:28:03,42.805,6.029,0.014,0.051,-0.005,98.0,104.0,99.0,13.4,1505.3,327.0,-0.7,1.8,2470.237,13.33,0.052,15.3
2019-12-22T09:31:03,42.805,6.029,-0.042,0.03,-0.077,98.0,106.0,97.0,13.4,1505.3,325.2,-0.6,1.9,2470.242,13.33,0.051,305.5
2019-12-22T09:34:03,42.805,6.029,-0.049,0.043,-0.056,99.0,105.0,97.0,13.4,1505.3,325.2,-0.7,1.8,2470.212,13.33,0.065,311.3
2019-12-22T09:37:03,42.805,6.029,-0.032,0.074,-0.046,99.0,105.0,97.0,13.4,1505.3,325.9,-0.7,1.9,2470.187,13.33,0.08,336.6
2019-12-22T09:40:03,42.805,6.029,-0.022,0.04,-0.037,99.0,105.0,99.0,13.4,1505.3,325.2,-0.7,1.9,2470.211,13.33,0.045,331.2
2019-12-22T09:43:03,42.805,6.029,-0.024,0.019,-0.082,100.0,104.0,98.0,13.4,1505.3,327.0,-0.7,1.9,2470.2,13.33,0.03,308.4
2019-12-22T09:46:03,42.805,6.029,-0.017,0.026,-0.056,100.0,103.0,99.0,13.4,1505.3,325.6,-0.7,1.9,2470.219,13.33,0.031,326.8
2019-12-22T09:49:03,42.805,6.029,-0.018,0.042,-0.025,100.0,105.0,98.0,13.4,1505.3,324.3,-0.7,1.8,2470.183,13.33,0.045,336.8
2019-12-22T09:52:03,42.805,6.029,0.0,0.041,-0.02,101.0,106.0,97.0,13.3,1505.3,324.1,-0.7,1.9,2470.217,13.33,0.041,0.0
2019-12-22T09:55:03,42.805,6.029,-0.014,0.024,-0.036,100.0,105.0,98.0,13.4,1505.3,328.2,-0.7,1.9,2470.241,13.33,0.027,329.7
2019-12-22T09:58:03,42.805,6.029,-0.039,0.053,-0.034,99.0,105.0,99.0,13.4,1505.3,325.4,-0.7,1.8,2470.184,13.33,0.065,323.7
2019-12-22T10:01:03,42.805,6.029,0.0,0.037,-0.047,100.0,104.0,97.0,13.3,1505.3,327.4,-0.7,1.8,2470.21,13.33,0.037,0.0
2019-12-22T10:04:03,42.805,6.029,-0.01,0.024,-0.014,102.0,105.0,98.0,13.4,1505.3,328.6,-0.7,1.9,2470.215,13.33,0.026,337.4
2019-12-22T10:07:03,42.805,6.029,-0.04,0.04,-0.069,99.0,105.0,98.0,13.4,1505.3,327.9,-0.7,1.8,2470.217,13.33,0.056,315.0